Year,Month,Day,Hour,Minute,Value (Times are PST for temperature in C)
2020,06,30,14,21,19.20
2020,06,30,14,22,19.20
2020,06,30,14,23,19.20
2020,06,30,14,24,19.20
2020,06,30,14,25,19.30
2020,06,30,14,26,19.40
2020,06,30,14,27,19.50
2020,06,30,14,28,19.50
2020,06,30,14,29,19.60
2020,06,30,14,30,19.60
2020,06,30,14,31,19.60
2020,06,30,14,32,19.70
2020,06,30,14,33,19.70
2020,06,30,14,34,19.80
2020,06,30,14,35,19.80
2020,06,30,14,36,19.80
2020,06,30,14,37,19.80
2020,06,30,14,38,19.80
2020,06,30,14,39,19.80
2020,06,30,14,40,19.90
2020,06,30,14,41,19.80
2020,06,30,14,42,19.80
2020,06,30,14,43,19.80
2020,06,30,14,44,19.90
2020,06,30,14,45,19.90
2020,06,30,14,46,19.90
2020,06,30,14,47,19.90
2020,06,30,14,48,19.90
2020,06,30,14,49,19.90
2020,06,30,14,50,19.80
2020,06,30,14,51,19.80
2020,06,30,14,52,19.70
2020,06,30,14,53,19.70
2020,06,30,14,54,19.60
2020,06,30,14,55,19.70
2020,06,30,14,56,19.70
2020,06,30,14,57,19.70
2020,06,30,14,58,19.70
2020,06,30,14,59,19.70
2020,06,30,15,00,19.60
2020,06,30,15,01,19.60
2020,06,30,15,02,19.60
2020,06,30,15,03,19.60
2020,06,30,15,04,19.60
2020,06,30,15,05,19.60
2020,06,30,15,06,19.60
2020,06,30,15,07,19.50
2020,06,30,15,08,19.50
2020,06,30,15,09,19.50
2020,06,30,15,10,19.50
2020,06,30,15,11,19.50
2020,06,30,15,12,19.60
2020,06,30,15,13,19.60
2020,06,30,15,14,19.60
2020,06,30,15,15,19.70
2020,06,30,15,16,19.70
2020,06,30,15,17,19.70
2020,06,30,15,18,19.70
2020,06,30,15,19,19.60
2020,06,30,15,20,19.60
2020,06,30,15,21,19.60
2020,06,30,15,22,19.50
2020,06,30,15,23,19.50
2020,06,30,15,24,19.50
2020,06,30,15,25,19.50
2020,06,30,15,26,19.50
2020,06,30,15,27,19.60
2020,06,30,15,28,19.70
2020,06,30,15,29,19.80
2020,06,30,15,30,19.90
2020,06,30,15,31,19.90
2020,06,30,15,32,20.00
2020,06,30,15,33,20.10
2020,06,30,15,34,20.10
2020,06,30,15,35,20.10
2020,06,30,15,36,19.90
2020,06,30,15,37,19.90
2020,06,30,15,38,19.90
2020,06,30,15,39,19.80
2020,06,30,15,40,19.80
2020,06,30,15,41,19.80
2020,06,30,15,42,19.80
2020,06,30,15,43,19.80
2020,06,30,15,44,19.80
2020,06,30,15,45,19.80
2020,06,30,15,46,19.90
2020,06,30,15,47,19.90
2020,06,30,15,48,19.90
2020,06,30,15,49,19.90
2020,06,30,15,50,19.80
2020,06,30,15,51,19.80
2020,06,30,15,52,19.80
2020,06,30,15,53,19.80
2020,06,30,15,54,19.80
2020,06,30,15,55,19.80
2020,06,30,15,56,19.80
2020,06,30,15,57,19.80
2020,06,30,15,58,19.80
2020,06,30,15,59,19.80
2020,06,30,16,00,19.80
2020,06,30,16,01,19.80
2020,06,30,16,02,19.80
2020,06,30,16,03,19.80
2020,06,30,16,04,19.80
2020,06,30,16,05,19.80
2020,06,30,16,06,19.80
2020,06,30,16,07,19.80
2020,06,30,16,08,19.90
2020,06,30,16,09,19.90
2020,06,30,16,10,19.90
2020,06,30,16,11,19.90
2020,06,30,16,12,19.90
2020,06,30,16,13,19.90
2020,06,30,16,14,20.00
2020,06,30,16,15,20.00
2020,06,30,16,16,19.90
2020,06,30,16,17,19.90
2020,06,30,16,18,19.90
2020,06,30,16,19,19.90
2020,06,30,16,20,19.80
2020,06,30,16,21,19.80
2020,06,30,16,22,19.80
2020,06,30,16,23,19.80
2020,06,30,16,24,19.80
2020,06,30,16,25,19.90
2020,06,30,16,26,19.90
2020,06,30,16,27,19.90
2020,06,30,16,28,19.90
2020,06,30,16,29,19.90
2020,06,30,16,30,19.90
2020,06,30,16,31,19.90
2020,06,30,16,32,19.90
2020,06,30,16,33,19.90
2020,06,30,16,34,19.90
2020,06,30,16,35,19.90
2020,06,30,16,36,19.90
2020,06,30,16,37,19.90
2020,06,30,16,38,19.90
2020,06,30,16,39,19.90
2020,06,30,16,40,19.90
2020,06,30,16,41,19.80
2020,06,30,16,42,19.70
2020,06,30,16,43,19.70
2020,06,30,16,44,19.60
2020,06,30,16,45,19.60
2020,06,30,16,46,19.60
2020,06,30,16,47,19.60
2020,06,30,16,48,19.60
2020,06,30,16,49,19.60
2020,06,30,16,50,19.60
2020,06,30,16,51,19.60
2020,06,30,16,52,19.60
2020,06,30,16,53,19.60
2020,06,30,16,54,19.60
2020,06,30,16,55,19.60
2020,06,30,16,56,19.60
2020,06,30,16,57,19.60
2020,06,30,16,58,19.60
2020,06,30,16,59,19.60
2020,06,30,17,00,19.60
2020,06,30,17,01,19.50
2020,06,30,17,02,19.50
2020,06,30,17,03,19.50
2020,06,30,17,04,19.50
2020,06,30,17,05,19.50
2020,06,30,17,06,19.50
2020,06,30,17,07,19.50
2020,06,30,17,08,19.50
2020,06,30,17,09,19.60
2020,06,30,17,10,19.60
2020,06,30,17,11,19.60
2020,06,30,17,12,19.70
2020,06,30,17,13,19.70
2020,06,30,17,14,19.80
2020,06,30,17,15,19.80
2020,06,30,17,16,19.80
2020,06,30,17,17,19.90
2020,06,30,17,18,19.90
2020,06,30,17,19,19.80
2020,06,30,17,20,19.80
2020,06,30,17,21,19.70
2020,06,30,17,22,19.70
2020,06,30,17,23,19.60
2020,06,30,17,24,19.50
2020,06,30,17,25,19.50
2020,06,30,17,26,19.40
2020,06,30,17,27,19.40
2020,06,30,17,28,19.30
2020,06,30,17,29,19.30
2020,06,30,17,30,19.20
2020,06,30,17,31,19.10
2020,06,30,17,32,19.10
2020,06,30,17,33,19.00
2020,06,30,17,34,18.90
2020,06,30,17,35,18.90
2020,06,30,17,36,18.90
2020,06,30,17,37,18.90
2020,06,30,17,38,18.90
2020,06,30,17,39,18.90
2020,06,30,17,40,19.00
2020,06,30,17,41,19.10
2020,06,30,17,42,19.10
2020,06,30,17,43,19.10
2020,06,30,17,44,19.10
2020,06,30,17,45,19.10
2020,06,30,17,46,19.10
2020,06,30,17,47,19.10
2020,06,30,17,48,19.10
2020,06,30,17,49,19.10
2020,06,30,17,50,19.10
2020,06,30,17,51,19.10
2020,06,30,17,52,19.10
2020,06,30,17,53,19.10
2020,06,30,17,54,19.10
2020,06,30,17,55,19.10
2020,06,30,17,56,19.10
2020,06,30,17,57,19.00
2020,06,30,17,58,18.90
2020,06,30,17,59,18.80
2020,06,30,18,00,18.70
2020,06,30,18,01,18.60
2020,06,30,18,02,18.50
2020,06,30,18,03,18.50
2020,06,30,18,04,18.50
2020,06,30,18,05,18.50
2020,06,30,18,06,18.50
2020,06,30,18,07,18.50
2020,06,30,18,08,18.60
2020,06,30,18,09,18.60
2020,06,30,18,10,18.60
2020,06,30,18,11,18.60
2020,06,30,18,12,18.60
2020,06,30,18,13,18.60
2020,06,30,18,14,18.50
2020,06,30,18,15,18.50
2020,06,30,18,16,18.50
2020,06,30,18,17,18.40
2020,06,30,18,18,18.40
2020,06,30,18,19,18.40
2020,06,30,18,20,18.30
2020,06,30,18,21,18.20
2020,06,30,18,22,18.20
2020,06,30,18,23,18.20
2020,06,30,18,24,18.20
2020,06,30,18,25,18.20
2020,06,30,18,26,18.20
2020,06,30,18,27,18.20
2020,06,30,18,28,18.20
2020,06,30,18,29,18.10
2020,06,30,18,30,18.10
2020,06,30,18,31,18.10
2020,06,30,18,32,18.10
2020,06,30,18,33,18.10
2020,06,30,18,34,18.10
2020,06,30,18,35,18.00
2020,06,30,18,36,17.90
2020,06,30,18,37,17.90
2020,06,30,18,38,17.90
2020,06,30,18,39,17.80
2020,06,30,18,40,17.70
2020,06,30,18,41,17.70
2020,06,30,18,42,17.60
2020,06,30,18,43,17.50
2020,06,30,18,44,17.40
2020,06,30,18,45,17.40
2020,06,30,18,46,17.40
2020,06,30,18,47,17.30
2020,06,30,18,48,17.30
2020,06,30,18,49,17.30
2020,06,30,18,50,17.30
2020,06,30,18,51,17.30
2020,06,30,18,52,17.20
2020,06,30,18,53,17.20
2020,06,30,18,54,17.10
2020,06,30,18,55,17.10
2020,06,30,18,56,17.00
2020,06,30,18,57,17.00
2020,06,30,18,58,16.90
2020,06,30,18,59,16.90
2020,06,30,19,00,16.80
2020,06,30,19,01,16.80
2020,06,30,19,02,16.80
2020,06,30,19,03,16.70
2020,06,30,19,04,16.70
2020,06,30,19,05,16.70
2020,06,30,19,06,16.70
2020,06,30,19,07,16.70
2020,06,30,19,08,16.70
2020,06,30,19,09,16.70
2020,06,30,19,10,16.70
2020,06,30,19,11,16.70
2020,06,30,19,12,16.70
2020,06,30,19,13,16.70
2020,06,30,19,14,16.70
2020,06,30,19,15,16.60
2020,06,30,19,16,16.60
2020,06,30,19,17,16.50
2020,06,30,19,18,16.40
2020,06,30,19,19,16.40
2020,06,30,19,20,16.40
2020,06,30,19,21,16.40
2020,06,30,19,22,16.40
2020,06,30,19,23,16.40
2020,06,30,19,24,16.30
2020,06,30,19,25,16.30
2020,06,30,19,26,16.20
2020,06,30,19,27,16.10
2020,06,30,19,28,16.10
2020,06,30,19,29,16.00
2020,06,30,19,30,15.90
2020,06,30,19,31,15.80
2020,06,30,19,32,15.80
2020,06,30,19,33,15.80
2020,06,30,19,34,15.70
2020,06,30,19,35,15.70
2020,06,30,19,36,15.70
2020,06,30,19,37,15.70
2020,06,30,19,38,15.70
2020,06,30,19,39,15.60
2020,06,30,19,40,15.50
2020,06,30,19,41,15.50
2020,06,30,19,42,15.50
2020,06,30,19,43,15.40
2020,06,30,19,44,15.30
2020,06,30,19,45,15.30
2020,06,30,19,46,15.30
2020,06,30,19,47,15.30
2020,06,30,19,48,15.20
2020,06,30,19,49,15.20
2020,06,30,19,50,15.20
2020,06,30,19,51,15.20
2020,06,30,19,52,15.20
2020,06,30,19,53,15.20
2020,06,30,19,54,15.20
2020,06,30,19,55,15.20
2020,06,30,19,56,15.10
2020,06,30,19,57,15.10
2020,06,30,19,58,15.10
2020,06,30,19,59,15.10
2020,06,30,20,00,15.10
2020,06,30,20,01,15.10
2020,06,30,20,02,15.10
2020,06,30,20,03,15.10
2020,06,30,20,04,15.10
2020,06,30,20,05,15.10
2020,06,30,20,06,15.10
2020,06,30,20,07,15.10
2020,06,30,20,08,15.10
2020,06,30,20,09,15.00
2020,06,30,20,10,15.00
2020,06,30,20,11,15.00
2020,06,30,20,12,14.90
2020,06,30,20,13,14.90
2020,06,30,20,14,14.90
2020,06,30,20,15,14.80
2020,06,30,20,16,14.80
2020,06,30,20,17,14.80
2020,06,30,20,18,14.80
2020,06,30,20,19,14.80
2020,06,30,20,20,14.80
2020,06,30,20,21,14.80
2020,06,30,20,22,14.80
2020,06,30,20,23,14.80
2020,06,30,20,24,14.80
2020,06,30,20,25,14.80
2020,06,30,20,26,14.80
2020,06,30,20,27,14.80
2020,06,30,20,28,14.80
2020,06,30,20,29,14.80
2020,06,30,20,30,14.80
2020,06,30,20,31,14.70
2020,06,30,20,32,14.70
2020,06,30,20,33,14.80
2020,06,30,20,34,14.80
2020,06,30,20,35,14.80
2020,06,30,20,36,14.80
2020,06,30,20,37,14.80
2020,06,30,20,38,14.80
2020,06,30,20,39,14.80
2020,06,30,20,40,14.70
2020,06,30,20,41,14.70
2020,06,30,20,42,14.70
2020,06,30,20,43,14.70
2020,06,30,20,44,14.60
2020,06,30,20,45,14.60
2020,06,30,20,46,14.60
2020,06,30,20,47,14.60
2020,06,30,20,48,14.60
2020,06,30,20,49,14.60
2020,06,30,20,50,14.50
2020,06,30,20,51,14.50
2020,06,30,20,52,14.50
2020,06,30,20,53,14.50
2020,06,30,20,54,14.50
2020,06,30,20,55,14.50
2020,06,30,20,56,14.40
2020,06,30,20,57,14.40
2020,06,30,20,58,14.40
2020,06,30,20,59,14.40
2020,06,30,21,00,14.40
2020,06,30,21,01,14.40
2020,06,30,21,02,14.30
2020,06,30,21,03,14.30
2020,06,30,21,04,14.30
2020,06,30,21,05,14.30
2020,06,30,21,06,14.30
2020,06,30,21,07,14.20
2020,06,30,21,08,14.20
2020,06,30,21,09,14.20
2020,06,30,21,10,14.20
2020,06,30,21,11,14.20
2020,06,30,21,12,14.20
2020,06,30,21,13,14.20
2020,06,30,21,14,14.20
2020,06,30,21,15,14.20
2020,06,30,21,16,14.20
2020,06,30,21,17,14.20
2020,06,30,21,18,14.20
2020,06,30,21,19,14.20
2020,06,30,21,20,14.20
2020,06,30,21,21,14.10
2020,06,30,21,22,14.10
2020,06,30,21,23,14.10
2020,06,30,21,24,14.10
2020,06,30,21,25,14.10
2020,06,30,21,26,14.10
2020,06,30,21,27,14.10
2020,06,30,21,28,14.10
2020,06,30,21,29,14.00
2020,06,30,21,30,14.00
2020,06,30,21,31,14.00
2020,06,30,21,32,14.00
2020,06,30,21,33,14.00
2020,06,30,21,34,14.00
2020,06,30,21,35,14.00
2020,06,30,21,36,14.00
2020,06,30,21,37,14.00
2020,06,30,21,38,14.00
2020,06,30,21,39,14.00
2020,06,30,21,40,14.00
2020,06,30,21,41,14.00
2020,06,30,21,42,14.00
2020,06,30,21,43,13.90
2020,06,30,21,44,13.90
2020,06,30,21,45,13.90
2020,06,30,21,46,13.90
2020,06,30,21,47,13.90
2020,06,30,21,48,13.90
2020,06,30,21,49,13.90
2020,06,30,21,50,13.90
2020,06,30,21,51,13.90
2020,06,30,21,52,13.90
2020,06,30,21,53,13.90
2020,06,30,21,54,13.90
2020,06,30,21,55,13.90
2020,06,30,21,56,13.90
2020,06,30,21,57,13.90
2020,06,30,21,58,13.90
2020,06,30,21,59,13.80
2020,06,30,22,00,13.80
2020,06,30,22,01,13.80
2020,06,30,22,02,13.80
2020,06,30,22,03,13.80
2020,06,30,22,04,13.80
2020,06,30,22,05,13.80
2020,06,30,22,06,13.80
2020,06,30,22,07,13.80
2020,06,30,22,08,13.80
2020,06,30,22,09,13.80
2020,06,30,22,10,13.80
2020,06,30,22,11,13.80
2020,06,30,22,12,13.80
2020,06,30,22,13,13.80
2020,06,30,22,14,13.80
2020,06,30,22,15,13.80
2020,06,30,22,16,13.80
2020,06,30,22,17,13.80
2020,06,30,22,18,13.80
2020,06,30,22,19,13.80
2020,06,30,22,20,13.80
2020,06,30,22,21,13.80
2020,06,30,22,22,13.70
2020,06,30,22,23,13.70
2020,06,30,22,24,13.70
2020,06,30,22,25,13.70
2020,06,30,22,26,13.70
2020,06,30,22,27,13.70
2020,06,30,22,28,13.70
2020,06,30,22,29,13.70
2020,06,30,22,30,13.70
2020,06,30,22,31,13.70
2020,06,30,22,32,13.70
2020,06,30,22,33,13.70
2020,06,30,22,34,13.70
2020,06,30,22,35,13.70
2020,06,30,22,36,13.70
2020,06,30,22,37,13.60
2020,06,30,22,38,13.60
2020,06,30,22,39,13.60
2020,06,30,22,40,13.60
2020,06,30,22,41,13.60
2020,06,30,22,42,13.60
2020,06,30,22,43,13.60
2020,06,30,22,44,13.60
2020,06,30,22,45,13.60
2020,06,30,22,46,13.60
2020,06,30,22,47,13.60
2020,06,30,22,48,13.50
2020,06,30,22,49,13.50
2020,06,30,22,50,13.50
2020,06,30,22,51,13.50
2020,06,30,22,52,13.50
2020,06,30,22,53,13.50
2020,06,30,22,54,13.50
2020,06,30,22,55,13.50
2020,06,30,22,56,13.50
2020,06,30,22,57,13.50
2020,06,30,22,58,13.50
2020,06,30,22,59,13.50
2020,06,30,23,00,13.50
2020,06,30,23,01,13.40
2020,06,30,23,02,13.40
2020,06,30,23,03,13.40
2020,06,30,23,04,13.40
2020,06,30,23,05,13.40
2020,06,30,23,06,13.40
2020,06,30,23,07,13.40
2020,06,30,23,08,13.40
2020,06,30,23,09,13.40
2020,06,30,23,10,13.40
2020,06,30,23,11,13.40
2020,06,30,23,12,13.40
2020,06,30,23,13,13.40
2020,06,30,23,14,13.40
2020,06,30,23,15,13.40
2020,06,30,23,16,13.40
2020,06,30,23,17,13.40
2020,06,30,23,18,13.40
2020,06,30,23,19,13.40
2020,06,30,23,20,13.30
2020,06,30,23,21,13.30
2020,06,30,23,22,13.30
2020,06,30,23,23,13.30
2020,06,30,23,24,13.30
2020,06,30,23,25,13.40
2020,06,30,23,26,13.40
2020,06,30,23,27,13.40
2020,06,30,23,28,13.40
2020,06,30,23,29,13.40
2020,06,30,23,30,13.40
2020,06,30,23,31,13.40
2020,06,30,23,32,13.40
2020,06,30,23,33,13.40
2020,06,30,23,34,13.40
2020,06,30,23,35,13.40
2020,06,30,23,36,13.40
2020,06,30,23,37,13.40
2020,06,30,23,38,13.40
2020,06,30,23,39,13.40
2020,06,30,23,40,13.40
2020,06,30,23,41,13.40
2020,06,30,23,42,13.40
2020,06,30,23,43,13.40
2020,06,30,23,44,13.40
2020,06,30,23,45,13.40
2020,06,30,23,46,13.40
2020,06,30,23,47,13.40
2020,06,30,23,48,13.40
2020,06,30,23,49,13.40
2020,06,30,23,50,13.40
2020,06,30,23,51,13.50
2020,06,30,23,52,13.50
2020,06,30,23,53,13.50
2020,06,30,23,54,13.50
2020,06,30,23,55,13.50
2020,06,30,23,56,13.50
2020,06,30,23,57,13.50
2020,06,30,23,58,13.40
2020,06,30,23,59,13.40
